This is the latest recevied weather packets stored in our database for station/object WD9U. If no packets are shown the sender has not sent any weather packets the latest 10 day(s).
| Time | Temp. | Humidity | Pressure | Rain* | Wind** | Luminosity | Snow |
|---|---|---|---|---|---|---|---|
| 1777385448 | 5.56° C | 82% | 1010.1 hPa | 0 mm | - | 97 W/m² | - |
| 1777385334 | 5.56° C | 82% | 1010 hPa | 0 mm | - | 94 W/m² | - |
| 1777384974 | 5.56° C | 82% | 1010 hPa | 0 mm | - | 71 W/m² | - |
| 1777384614 | 5.56° C | 82% | 1009.9 hPa | 0 mm | - | 56 W/m² | - |
| 1777384254 | 5.56° C | 83% | 1009.7 hPa | 0 mm | - | 59 W/m² | - |
| 1777383894 | 5.56° C | 83% | 1009.6 hPa | 0 mm | - | 53 W/m² | - |
| 1777383534 | 5.56° C | 83% | 1009.5 hPa | 0 mm | - | 48 W/m² | - |
| 1777383174 | 5.56° C | 83% | 1009.5 hPa | 0 mm | - | 48 W/m² | - |
| 1777382814 | 5.56° C | 82% | 1009.2 hPa | 0 mm | - | 51 W/m² | - |
| 1777382454 | 5.56° C | 81% | 1009.1 hPa | 0 mm | - | 44 W/m² | - |
| 1777382093 | 5.56° C | 81% | 1009 hPa | 0 mm | - | 52 W/m² | - |
| 1777381846 | 5.56° C | 80% | 1008.8 hPa | 0 mm | - | 54 W/m² | - |
| 1777381733 | 5.56° C | 80% | 1008.9 hPa | 0 mm | - | 61 W/m² | - |
| 1777381373 | 5.56° C | 81% | 1008.6 hPa | 0 mm | - | 67 W/m² | - |
| 1777381013 | 5.56° C | 81% | 1008.6 hPa | 0 mm | - | 61 W/m² | - |
| 1777380646 | 5.56° C | 81% | 1008.3 hPa | 0 mm | - | 52 W/m² | - |
| 1777380293 | 5.56° C | 81% | 1008.3 hPa | 0 mm | - | 43 W/m² | - |
| 1777379933 | 5.56° C | 82% | 1008.1 hPa | 0 mm | - | 48 W/m² | - |
| 1777379573 | 5.56° C | 82% | 1007.9 hPa | 0 mm | - | 48 W/m² | - |
| 1777379446 | 5.56° C | 82% | 1007.8 hPa | 0 mm | - | 46 W/m² | - |
| 1777379213 | 5.56° C | 83% | 1007.5 hPa | 0 mm | - | 44 W/m² | - |
| 1777378853 | 5.56° C | 84% | 1007.6 hPa | 0 mm | - | 40 W/m² | - |
| 1777378493 | 5.56° C | 84% | 1007.5 hPa | 0 mm | - | 28 W/m² | - |
| 1777378246 | 5.56° C | 85% | 1007.5 hPa | 0 mm | - | 30 W/m² | - |
| 1777378133 | 5.56° C | 85% | 1007.3 hPa | 0 mm | - | 26 W/m² | - |
* Rain latest hour (hover to see other rain measurements)
** Current wind speed in m/s (hover to see current wind gust speed)